• Processing (Info)

  • MPEC 2005-Y35 : 2005 YS8

    The following Minor Planet Electronic Circular may be linked-to from your own Web pages, but must not otherwise be redistributed electronically.

    A form allowing access to any MPEC is at the bottom of this page.


    Read MPEC 2005-Y34 Read MPEC 2005-Y36


    M.P.E.C. 2005-Y35                                Issued 2005 Dec. 26, 05:06 UT
    
         The Minor Planet Electronic Circulars contain information on unusual
             minor planets and routine data on comets.  They are published
       on behalf of Commission 20 of the International Astronomical Union by the
              Minor Planet Center, Smithsonian Astrophysical Observatory,
                              Cambridge, MA 02138, U.S.A.
    
                      Supported in part by the Brinson Foundation
                      Supported in part by the TABASGO Foundation
                 Prepared using the Tamkin Foundation Computer Network
    
                                  MPC@CFA.HARVARD.EDU
              URL http://cfa-www.harvard.edu/iau/mpc.html  ISSN 1523-6714
    
                                       2005 YS8
    
    Observations:
         K05Y08S* C2005 12 24.07514 00 48 16.88 +27 22 39.0          19.6 V EY035703
         K05Y08S  C2005 12 24.08255 00 48 19.36 +27 23 04.9          19.4 V EY035703
         K05Y08S  C2005 12 24.08994 00 48 21.81 +27 23 31.8          19.9 V EY035703
         K05Y08S  C2005 12 24.09731 00 48 24.37 +27 23 57.5          19.2 V EY035703
         K05Y08S  C2005 12 24.16032 00 48 45.10 +27 27 45.1          19.4 V EY035703
         K05Y08S  C2005 12 24.16924 00 48 48.06 +27 28 16.6          19.7 V EY035703
         K05Y08S  C2005 12 24.17817 00 48 51.01 +27 28 48.4          19.3 V EY035703
         K05Y08S  C2005 12 24.18711 00 48 53.96 +27 29 20.1          19.4 V EY035703
         K05Y08S  C2005 12 24.83981 00 52 35.37 +28 07 34.7                 EY035J95
         K05Y08S  C2005 12 24.84624 00 52 37.48 +28 07 56.2                 EY035J95
         K05Y08S  C2005 12 24.85270 00 52 39.57 +28 08 18.5          19.8 R EY035J95
         K05Y08S 5C2005 12 25.14294 00 54 16.75 +28 24 57.7          19.7 R EY035673
         K05Y08S 5C2005 12 25.15191 00 54 19.87 +28 25 29.2                 EY035673
         K05Y08S 5C2005 12 25.15550 00 54 21.03 +28 25 41.1                 EY035673
         K05Y08S 5C2005 12 25.16204 00 54 23.58 +28 26 07.6                 EY035673
         K05Y08S  C2005 12 25.73392 00 57 33.31 +28 57 38.8          20.4 R EY035143
         K05Y08S  C2005 12 25.80692 00 57 57.00 +29 01 33.5                 EY035J95
         K05Y08S  C2005 12 25.81002 00 57 58.06 +29 01 43.8                 EY035J95
         K05Y08S  C2005 12 25.81311 00 57 59.10 +29 01 54.0          20.3 R EY035J95
         K05Y08S  C2005 12 25.82312 00 58 02.02 +29 02 28.5          20.6 R EY035143
         K05Y08S  C2005 12 25.83530 00 58 05.97 +29 03 08.0          19.7 R EY035143
         K05Y08S  C2005 12 26.07382 00 59 24.49 +29 15 59.8          20.0 R EY035734
         K05Y08S  C2005 12 26.07693 00 59 25.48 +29 16 08.4          19.9 R EY035734
         K05Y08S  C2005 12 26.08007 00 59 26.43 +29 16 18.9          20.5 R EY035734
         K05Y08S  C2005 12 26.08318 00 59 27.50 +29 16 27.8          20.7 R EY035734
    
    Observer details:
    143 Gnosca.  Observer S. Sposetti.  0.40-m f/4 reflector + CCD.
    673 Table Mountain Observatory, Wrightwood.  Observer J. Young.  0.6-m f/16
        Cassegrain + CCD.
    703 Catalina Sky Survey.  Observer R. A. Kowalski.  Measurers E. C. Beshore,
        E. J. Christensen, G. J. Garradd, A. D. Grauer, R. E. Hill, R. A. Kowalski,
        S. M. Larson, R. H. McNaught.  0.68-m Schmidt + CCD.
    734 Farpoint Observatory.  Observer G. Hug.  0.7-m reflector + CCD.
    J95 Great Shefford.  Observer P. Birtwhistle.  0.40-m f/6.0 Schmidt-Cassegrain
        + CCD.
    
    Orbital elements:
    2005 YS8                                                             PHA 0.019
    Epoch 2005 Dec. 16.0 TT = JDT 2453720.5                 MPC
    M  28.17122              (2000.0)            P               Q
    n   0.49791085     Peri.  296.57098     +0.96190864     +0.12640064
    a   1.5765279      Node    57.09020     +0.02040890     +0.85100423
    e   0.4940110      Incl.   16.78172     -0.27260824     +0.50972020
    P   1.98           H   20.0           G   0.15
    From 24 observations 2005 Dec. 24-26.
    
    Ephemeris:
    2005 YS8                 a,e,i = 1.58, 0.49, 17                  q = 0.7977
    Date    TT    R. A. (2000) Decl.     Delta      r     Elong.  Phase     V
    2005 12 26    00 59.01   +29 12.1    0.353    1.151   109.6    53.7    20.0
    2006 01 05    01 48.41   +35 48.8    0.455    1.228   112.0    47.9    20.5
    2006 01 15    02 29.83   +39 22.1    0.571    1.306   111.5    44.5    21.1
    2006 01 25    03 05.99   +41 16.6    0.696    1.381   109.3    42.3    21.6
    2006 02 04    03 38.75   +42 15.0    0.830    1.455   106.2    40.6    22.0
    
    Gareth V. Williams           (C) Copyright 2005 MPC           M.P.E.C. 2005-Y35
    

    Read MPEC 2005-Y34 Read MPEC 2005-Y36


    MPEC number:

    Enter an MPEC number in one of the following forms:

    • 1997-B01 (the full form)
    • J97B01 (the packed version of the full form)
    • B01 (the abbreviated form)